Regional Weather Roundup
Issued by NWS

Home | Current Version | Previous Version | Text Only | Print | Product List | Glossary On
Versions: 1 2 3 4 5 6 7 8 9 10 11 12 13 14 15 16 17 18 19 20 21 22 23 24 25 26 27 28 29 30 31 32 33 34 35 36 37 38 39 40 41 42 43 44 45 46 47 48 49 50
000
ASUS43 KBIS 040520
RWRND

NORTH DAKOTA REGIONAL WEATHER ROUNDUP
NATIONAL WEATHER SERVICE BISMARCK ND
1100 PM CST TUE MAR 03 2015

NOTE: "FAIR" INDICATES FEW OR NO CLOUDS BELOW 12,000 FEET WITH NO
SIGNIFICANT WEATHER AND/OR OBSTRUCTIONS TO VISIBILITY.


NDZ001>003-009>011-017-040600-
NORTHWEST NORTH DAKOTA

CITY           SKY/WX    TMP DP  RH WIND       PRES   REMARKS
WILLISTON      PTCLDY     1  -9  62 NW15      30.07R WCI -18
MINOT          MOCLDY     0  -9  65 W15       30.00R WCI -19
MINOT AFB      MOCLDY    -2  -8  78 W13       30.00R WCI -21
$$

NDZ018>021-031>035-040>046-040600-
SOUTHWEST NORTH DAKOTA

CITY           SKY/WX    TMP DP  RH WIND       PRES   REMARKS
BISMARCK       PTCLDY     3  -7  63 CALM      30.05F
DICKINSON      CLOUDY     7  -1  70 W9        29.95S WCI  -7
GARRISON         N/A     -1  -7  75 W9        30.00R WCI -16
HETTINGER ARPT CLEAR      4  -5  66 W10       29.99F WCI -11
$$

NDZ004>008-012>016-024-026-027-054-040600-
NORTHEAST NORTH DAKOTA

CITY           SKY/WX    TMP DP  RH WIND       PRES   REMARKS
GRAND FORKS    PTCLDY    -2  -9  72 W8        30.03R WCI -17
GRND FRKS AFB  CLEAR      0 -10  64 NW15G21   30.02R WCI -20
DEVILS LAKE    CLEAR     -2 -13  60 W15       29.99R WCI -22
$$

NDZ022-023-025-028>030-036>039-047>053-040600-
SOUTHEAST NORTH DAKOTA

CITY           SKY/WX    TMP DP  RH WIND       PRES   REMARKS
FARGO          CLEAR      2  -8  63 W9        30.07R WCI -13
JAMESTOWN      CLEAR      0 -10  63 W15       30.02S WCI -19
$$



USA.gov is the U.S. government's official web portal to all federal, state and local government web resources and services.